www.pogodaiklimat.ru

Погода и климат >> Архив погоды >> Иран >> Остров Абу-Муса


ПОГОДА на Острове Абу-Муса

  • Прогноз погоды на Острове Абу-Муса
  • Монитор погоды на Острове Абу-Муса

АРХИВ ПОГОДЫ на Острове Абу-Муса

Время (UTC), дата Ветер
(напр.,м/с)
 
Видим.   Явления Облачность Т
(С)
Тd
(С)
f
(%)
Тe
(С)
Тes
(С)
Комфортность P
(гПа)
Po
(гПа)
Тmin
(С)
Tmax
(С)
R
(мм)
R24
(мм)
S
(см)
15 12.06 С 2 6000 м мгла ясно +35.4 +25.1 55 +49 +49 опасность
перегрева
995.5 994.8 +40.0
03 13.06 СВ 2 6000 м мгла ясно +33.0 +26.1 67 +49 +51 опасность
перегрева
997.1 996.4 +32.4
06 13.06 В 5 6000 м мгла ясно +36.0 +30.1 72 +63 +72 опасность
перегрева
998.9 998.2
09 13.06 ЮЗ 3 6000 м мгла ясно +37.0 +26.0 53 +52 +70 опасность
перегрева
998.5 997.8
12 13.06 С 4 6000 м мгла ясно +38.4 +28.6 58 +60 +67 опасность
перегрева
996.4 995.7
15 13.06 СВ 2 6000 м мгла ясно +36.0 +27.9 63 +56 +56 опасность
перегрева
996.6 995.9 +39.4
03 14.06 З 4 4000 м дымка ясно +32.0 +32.0 100 +66 +68 опасность
перегрева
996.8 996.1 +28.6
06 14.06 ЮЗ 2 6000 м дымка ясно +35.0 +40.0 100 +86 +102 опасность
перегрева
998.9 998.2
09 14.06 ЮЗ 2 6000 м мгла ясно +37.0 +31.6 74 +70 +91 опасность
перегрева
997.4 996.7
12 14.06 З 2 6000 м мгла ясно +36.0 +30.0 71 +62 +72 опасность
перегрева
997.1 996.4
15 14.06 СЗ 2 6000 м мгла ясно +35.0 +30.3 77 +63 +63 опасность
перегрева
996.6 995.9 +37.2
03 15.06 штиль 0 4000 м дымка ясно +31.0 +31.0 100 +61 +64 опасность
перегрева
997.9 997.1 +28.2
06 15.06 Ю 4 6000 м дымка ясно +33.0 +30.0 84 +60 +70 опасность
перегрева
999.5 998.8
09 15.06 З 4 6000 м мгла ясно +36.0 +30.2 72 +63 +78 опасность
перегрева
999.3 998.6
12 15.06 СЗ 2 6000 м мгла ясно +36.0 +30.1 72 +63 +73 опасность
перегрева
997.9 997.2
15 15.06 СЗ 2 6000 м мгла ясно +35.0 +29.7 74 +61 +61 опасность
перегрева
997.3 996.6 +36.0
03 16.06 штиль 0 6000 м дымка ясно +30.6 +30.6 100 +59 +62 опасность
перегрева
999.3 998.5 +30.4
06 16.06 З 2 6000 м мгла ясно +34.0 +40.0 100 +79 +95 опасность
перегрева
1000.0 999.3
09 16.06 С 3 6000 м мгла ясно +36.0 +27.9 63 +56 +74 опасность
перегрева
1000.0 999.3
12 16.06 СЗ 4 6000 м мгла ясно +36.0 +30.0 71 +62 +69 опасность
перегрева
998.2 997.4
15 16.06 СЗ 5 6000 м мгла ясно +36.0 +30.8 75 +66 +66 опасность
перегрева
997.7 996.9 +36.4
03 17.06 З 3 6000 м дымка ясно +32.0 +32.0 100 +66 +68 опасность
перегрева
997.7 997.0 +29.4
06 17.06 СЗ 3 6000 м мгла ясно +34.0 +30.1 80 +61 +74 опасность
перегрева
1000.0 999.3
09 17.06 СЗ 2 6000 м дымка ясно +34.6 +31.8 85 +68 +90 опасность
перегрева
1000.0 999.3
12 17.06 СЗ 2 6000 м мгла ясно +35.0 +30.0 75 +62 +71 опасность
перегрева
998.2 997.5
15 17.06 Ю 3 6000 м дымка ясно +33.0 +30.4 86 +61 +61 опасность
перегрева
997.3 996.6 +35.2
03 18.06 В 2 2000 м дымка ясно +30.2 +29.9 98 +55 +58 опасность
перегрева
998.3 997.5 +28.2
06 18.06 СЗ 2 6000 м дымка ясно +34.0 +30.0 80 +61 +77 опасность
перегрева
999.1 998.4
09 18.06 Ю 3 6000 м мгла ясно +35.6 +30.9 77 +66 +84 опасность
перегрева
997.6 996.9
12 18.06 З 2 6000 м мгла ясно +35.0 996.6 995.9
15 18.06 З 2 6000 м мгла ясно +34.0 +30.0 80 +61 +61 опасность
перегрева
997.0 996.3 +35.6
03 19.06 С 5 3000 м дымка ясно +30.4 +29.9 97 +56 +57 опасность
перегрева
993.5 992.8 +28.4
06 19.06 Ю 3 6000 м дымка ясно +34.0 +30.2 81 +62 +75 опасность
перегрева
994.6 993.9
12 19.06 СВ 5 6000 м дымка ясно +36.0 +30.2 72 +63 +68 опасность
перегрева
993.2 992.5

 

Местоположение метеостанции Остров Абу-Муса (Иран): широта 25.83 долгота 54.83 высота над уровнем моря 6 м.

В архиве по умолчанию представлена погода на Острове Абу-Муса за последнюю неделю. Архивные данные за месяц целиком и за предыдущие месяцы, начиная с января 2011 года, Вы можете получить, выбрав интересующий диапазон дат из раскрывающегося списка и нажав кнопку "Ввод!".


*Определитесь, кто Вы:
робот инопланетянин человек

Внимание! Время в таблицах - всемирное. Для получения местного времени необходимо прибавить поправку, которая равна 3.5 ч.

Смотрите также архив погоды в соседних городах и на ближайших метеорологических станциях:

Погода на Острове Сирри (Иран) (29 км)
Погода в Дубае (ОАЭ) (82 км)
Погода в Бендер-Ленге (Иран) (83 км)
Погода в Шардже (ОАЭ) (89 км)
Погода в Аль-Мактум аэропорту (ОАЭ) (109 км)
Погода в Рай-эль-Хайма аэропорту (ОАЭ) (113 км)
Погода на Острове Киш (Иран) (113 км)
Погода в Дибе (Оман) (144 км)
Погода в Эль-Хасаб аэропорту (Оман) (145 км)
Погода в Эль-Хасабе (Оман) (147 км)

Пояснения к столбцам:

Ветер - указаны скорость ветра в м/с - средняя за 10 мин, порывы в срок и между сроками (в фигурных скобках) и направление, откуда дует ветер: С - северный, СВ - северо-восточный, В - восточный, ЮВ - юго-восточный, Ю - южный, ЮЗ - юго-западный, З - западный, СЗ - северо-западный.
Видимость - горизонтальная дальность видимости в метрах или километрах. При видимости от 1 до 10 км при отсутствии осадков обычно наблюдается дымка, при ухудшении видимости до 1 км и менее - туман. В сухую погоду видимость может ухудшаться дымом, пылью или мглою.
Явления - указаны атмосферные явления, наблюдавшиеся в срок или в последний час перед сроком; фигурными скобками обозначены явления, наблюдавшиеся между сроками (за 1-3 часа до срока); квадратными скобками обозначены град или гололедные отложения с указанием их диаметра в мм.
Облачность - указаны через наклонную черту общая и нижняя облачность в баллах и высота нижней границы облаков в метрах; квадратными скобками обозначены формы облаков: Ci - перистые, Cs - перисто-слоистые, Cc - перисто-кучевые, Ac - высококучевые, As - высокослоистые, Sc - слоисто-кучевые, Ns - слоисто-дождевые, Cu - кучевые, Cb - кучево-дождевые. Подробнее классификацию облаков см. в Атласе облаков (PDF).
T - Температура воздуха - температура, измеренная на высоте 2 м над землей.
Td - Температура точки росы - температура, при понижении до которой содержащийся в воздухе водяной пар достигнет насыщения.
f - Относительная влажность воздуха - влажноcть воздуха, измеренная на высоте 2 м над землей.
Te - Эффективная температура - температура, которую ощущает одетый по сезону человек в тени. Характеристика душности погоды. При расчете учитывается влияние влажности воздуха и скорости ветра на теплоощущения человека.
Tes - Эффективная температура на солнце - температура, которую ощущает человек, с поправкой на солнечный нагрев. Характеристика знойности погоды. Зависит от высоты солнца над горизонтом, облачности и скорости ветра. Ночью, в пасмурную погоду, а также при ветре 12 м/с и более поправка равна нулю.
P - Атмосферное давление - приведенное к уровню моря атмосферное давление.
Po - Атмосферное давление - измеренное на уровне метеостанции атмосферное давление.
Tmin - Минимальная температура - минимум температуры воздуха на высоте 2 м над землей.
Tmax - Максимальная температура - максимум температуры воздуха на высоте 2 м над землей.
R - Количество осадков - Количество выпавших осадков за период времени, мм. При наведении курсора мыши на число - период времени, за который выпало указанное количество осадков.
R24 - Количество осадков - Количество выпавших осадков за 24 часа, мм.
S - Снежный покров - Высота снежного покрова, см. При наведении курсора мыши на число - состояние снежного покрова и степень покрытия местности в баллах.